Bloomington, IL

4:09 AM CDT on March 23, 2017 (GMT -0500)
Central Ill Regional

Weather History for KBMI - December, 2011

Change the Weather History Date:

Wednesday, December 14, 2011

  Actual Average Record
Temperature  
Mean Temperature 48 °F -  
Max Temperature 54 °F 40 °F 62 °F (2015)
Min Temperature 41 °F 18 °F 1 °F (2010)
Degree Days  
Heating Degree Days 18    
Moisture  
Dew Point 46 °F    
Average Humidity 100    
Maximum Humidity 100    
Minimum Humidity 100    
Precipitation  
Precipitation 2.01 in - - ()
Sea Level Pressure  
Sea Level Pressure 30.05 in    
Wind  
Wind Speed 14 mph (South)    
Max Wind Speed 26 mph    
Max Gust Speed -    
Visibility 2 miles    
Events Fog , Rain , Thunderstorm    
Averages and records for this station are not official NWS values.
T = Trace of Precipitation, MM = Missing Value Source: NWS Daily Summary

Daily Weather History Graph

Daily Weather History Graph

Search for Another Location

Airport or City:

Trip Planner

Search our weather history database for the weather conditions in past years. The results will help you decide how hot, cold, wet, or windy it might be!

Date:

Astronomy

Dec. 14, 2011 Rise Set
Actual Time 7:10 AM CST 4:29 PM CST
Civil Twilight 6:40 AM CST 5:00 PM CST
Nautical Twilight 6:05 AM CST 5:34 PM CST
Astronomical Twilight 5:32 AM CST 6:07 PM CST
Moon 8:50 PM CST (12/14) 9:55 AM CST (12/14)
Length of Visible Light 10h 20m
Length of Day
9h 18m
Waning Gibbous, 83% of the Moon is Illuminated
Dec 14
Waning Gibbous
Dec 17
Last Quarter
Dec 24
New
Jan 1
First Quarter
Jan 9
Full

Hourly Weather History & Observations

Time (CST) Temp. Windchill Dew Point Humidity Pressure Visibility Wind Dir Wind Speed Gust Speed Precip Events Conditions
12:08 AM 41.0 °F 35.8 °F 41.0 °F 100% 30.24 in 1.0 mi SSE 8.1 mph - 0.00 in Rain Light Rain
12:15 AM 41.0 °F 35.2 °F 41.0 °F 100% 30.23 in 0.8 mi SSE 9.2 mph - 0.01 in   Overcast
12:22 AM 41.0 °F 34.7 °F 41.0 °F 100% 30.23 in 0.5 mi SSE 10.4 mph - 0.01 in Fog , Rain Light Rain
12:41 AM 41.0 °F 34.3 °F 41.0 °F 100% 30.22 in 1.0 mi SSE 11.5 mph - 0.02 in Rain Light Rain
12:56 AM 41.0 °F 33.5 °F 41.0 °F 100% 30.24 in 1.5 mi SSE 13.8 mph - 0.02 in Rain Light Rain
1:19 AM 41.0 °F 33.5 °F 41.0 °F 100% 30.19 in 2.0 mi SSE 13.8 mph - 0.00 in   Overcast
1:56 AM 41.9 °F 34.6 °F 41.9 °F 100% 30.21 in 2.5 mi SSE 13.8 mph - 0.03 in Rain Light Rain
2:05 AM 42.8 °F 36.6 °F 42.8 °F 100% 30.18 in 3.0 mi SSE 11.5 mph - 0.00 in   Overcast
2:34 AM 42.8 °F 38.0 °F 42.8 °F 100% 30.17 in 2.5 mi SSE 8.1 mph - 0.00 in   Overcast
2:44 AM 41.0 °F 34.7 °F 41.0 °F 100% 30.16 in 1.2 mi SSE 10.4 mph - 0.00 in   Overcast
3:07 AM 42.8 °F 36.2 °F 42.8 °F 100% 30.15 in 3.0 mi SSE 12.7 mph - N/A   Overcast
3:17 AM 42.8 °F 36.2 °F 42.8 °F 100% 30.15 in 1.8 mi SSE 12.7 mph - N/A   Overcast
3:41 AM 42.8 °F 36.6 °F 42.8 °F 100% 30.14 in 2.0 mi South 11.5 mph - N/A   Overcast
3:56 AM 41.9 °F 35.4 °F 41.9 °F 100% 30.17 in 2.0 mi SSE 11.5 mph - N/A   Overcast
4:16 AM 42.8 °F 35.4 °F 42.8 °F 100% 30.12 in 1.8 mi South 15.0 mph - N/A   Overcast
4:35 AM 42.8 °F 35.8 °F 42.8 °F 100% 30.11 in 1.2 mi South 13.8 mph - N/A   Overcast
4:56 AM 43.0 °F 35.7 °F 43.0 °F 100% 30.13 in 1.5 mi SSE 15.0 mph - N/A   Overcast
5:14 AM 42.8 °F 34.8 °F 42.8 °F 100% 30.08 in 1.2 mi SSE 17.3 mph - N/A   Overcast
5:56 AM 43.9 °F 36.8 °F 43.9 °F 100% 30.10 in 2.0 mi South 15.0 mph - N/A   Overcast
6:16 AM 44.6 °F 37.4 °F 44.6 °F 100% 30.07 in 2.0 mi South 16.1 mph - N/A   Overcast
6:56 AM 43.9 °F 37.2 °F 43.9 °F 100% 30.09 in 2.5 mi South 13.8 mph - 0.00 in Rain Light Rain
7:37 AM 44.6 °F 36.9 °F 44.6 °F 100% 30.03 in 2.5 mi South 18.4 mph - 0.01 in Rain Light Rain
7:56 AM 45.0 °F 37.4 °F 45.0 °F 100% 30.05 in 2.0 mi South 18.4 mph - 0.01 in   Mostly Cloudy
7:59 AM 44.6 °F 36.9 °F 44.6 °F 100% 30.02 in 2.0 mi South 18.4 mph - N/A   Mostly Cloudy
8:56 AM 45.9 °F 39.1 °F 45.9 °F 100% 30.07 in 2.0 mi South 16.1 mph - 0.00 in Rain Light Rain
9:23 AM 46.4 °F 40.7 °F 46.4 °F 100% 30.06 in 1.0 mi SSW 12.7 mph - 0.05 in Rain Rain
9:38 AM 46.4 °F 41.1 °F 46.4 °F 100% 30.07 in 1.0 mi SW 11.5 mph - 0.13 in Rain , Thunderstorm Thunderstorms and Rain
9:56 AM 46.4 °F 41.1 °F 46.4 °F 100% 30.09 in 0.8 mi SSW 11.5 mph - 0.25 in Rain , Thunderstorm Heavy Thunderstorms and Rain
10:17 AM 46.4 °F 40.1 °F 46.4 °F 100% 30.04 in 1.0 mi South 15.0 mph - 0.08 in Rain Light Rain
10:56 AM 46.9 °F - 46.9 °F 100% 30.03 in 1.0 mi South 17.3 mph - 0.17 in Rain Rain
11:56 AM 48.9 °F - 48.9 °F 100% 30.00 in 1.0 mi South 19.6 mph - 0.33 in Rain , Thunderstorm Rain
12:56 PM 47.8 °F - 47.8 °F 100% 29.97 in 1.0 mi South 12.7 mph - 0.54 in Rain Light Rain
1:15 PM 48.2 °F - 48.2 °F 100% 29.94 in 1.0 mi South 15.0 mph - 0.01 in Rain , Thunderstorm Light Thunderstorms and Rain
1:56 PM 48.9 °F - 48.9 °F 100% 29.93 in 1.5 mi South 18.4 mph - 0.18 in Rain Light Rain
2:56 PM 50.0 °F - 50.0 °F 100% 29.86 in 1.2 mi SSE 25.3 mph - 0.16 in Rain Light Rain
3:04 PM 50.0 °F - 50.0 °F 100% 29.86 in 1.2 mi South 25.3 mph - 0.02 in Rain , Thunderstorm Light Thunderstorms and Rain
3:56 PM 50.9 °F - 50.9 °F 100% 29.89 in 1.2 mi South 26.5 mph - 0.20 in Rain , Thunderstorm Rain
4:56 PM 50.9 °F - 50.9 °F 100% 29.88 in 2.0 mi South 25.3 mph - 0.11 in Rain , Thunderstorm Light Thunderstorms and Rain
5:17 PM 51.8 °F - 51.8 °F 100% 29.86 in 2.0 mi South 21.9 mph - 0.08 in Rain , Thunderstorm Rain
6:56 PM 52.0 °F - 52.0 °F 100% 29.85 in 5.0 mi South 20.7 mph - N/A   Overcast
8:56 PM 52.9 °F - 52.9 °F 100% 29.81 in 2.0 mi SSW 21.9 mph - 0.00 in Rain Light Rain
9:56 PM 54.0 °F - 54.0 °F 100% 29.78 in 5.0 mi SSW 17.3 mph - 0.01 in   Overcast
10:56 PM 54.9 °F - 54.9 °F 100% 29.77 in 10.0 mi SSW 23.0 mph - N/A   Overcast
11:56 PM 54.9 °F - 54.9 °F 100% 29.75 in 2.0 mi SSW 20.7 mph - 0.00 in Rain Light Rain